Satellite: NOAA-12 Catalog number: 21263 Epoch time: 13059.55067823 Element set: 737 Inclination: 098.7073 deg RA of node: 085.7481 deg Eccentricity: 0.0014259 Arg of perigee: 171.9248 deg Mean anomaly: 350.0728 deg Mean motion: 14.25548535 rev/day Decay rate: 7.0e-08 rev/day^2 Epoch rev: 13307 Checksum: 308
Satellite: MET-3/5 Catalog number: 21655 Epoch time: 13059.84424678 Element set: 631 Inclination: 082.5593 deg RA of node: 330.8509 deg Eccentricity: 0.0013948 Arg of perigee: 045.0765 deg Mean anomaly: 315.1487 deg Mean motion: 13.17045647 rev/day Decay rate: -6.3e-07 rev/day^2 Epoch rev: 3567 Checksum: 319
Satellite: MET-2/21 Catalog number: 22782 Epoch time: 13059.89038811 Element set: 676 Inclination: 082.5517 deg RA of node: 188.8320 deg Eccentricity: 0.0023519 Arg of perigee: 151.0932 deg Mean anomaly: 355.8892 deg Mean motion: 13.83700585 rev/day Decay rate: 1.08e-06 rev/day^2 Epoch rev: 98466 Checksum: 332
Satellite: OKEAN-4 Catalog number: 23317 Epoch time: 13059.87707192 Element set: 152 Inclination: 082.5414 deg RA of node: 151.1476 deg Eccentricity: 0.0020748 Arg of perigee: 220.1200 deg Mean anomaly: 257.0995 deg Mean motion: 14.84267272 rev/day Decay rate: 6.64e-06 rev/day^2 Epoch rev: 99287 Checksum: 305
Satellite: NOAA-14 Catalog number: 23455 Epoch time: 13059.45585495 Element set: 219 Inclination: 098.8063 deg RA of node: 145.5274 deg Eccentricity: 0.0008475 Arg of perigee: 309.9571 deg Mean anomaly: 157.6282 deg Mean motion: 14.13894209 rev/day Decay rate: 3.5e-07 rev/day^2 Epoch rev: 93700 Checksum: 329
Satellite: NOAA-15 Catalog number: 25338 Epoch time: 13059.55750870 Element set: 638 Inclination: 098.7179 deg RA of node: 050.3972 deg Eccentricity: 0.0011794 Arg of perigee: 085.6348 deg Mean anomaly: 062.3181 deg Mean motion: 14.25181156 rev/day Decay rate: 1.42e-06 rev/day^2 Epoch rev: 76936 Checksum: 325
Satellite: RESURS Catalog number: 25394 Epoch time: 13059.89040455 Element set: 317 Inclination: 098.3510 deg RA of node: 040.9855 deg Eccentricity: 0.0001531 Arg of perigee: 160.4895 deg Mean anomaly: 232.2067 deg Mean motion: 14.24321130 rev/day Decay rate: 2.0e-07 rev/day^2 Epoch rev: 76094 Checksum: 268
Satellite: FENGYUN1 Catalog number: 25730 Epoch time: 13058.92293060 Element set: 816 Inclination: 098.8698 deg RA of node: 019.8487 deg Eccentricity: 0.0023894 Arg of perigee: 357.3959 deg Mean anomaly: 035.5314 deg Mean motion: 14.10218222 rev/day Decay rate: 1.998e-05 rev/day^2 Epoch rev: 71064 Checksum: 330
Satellite: OKEAN-0 Catalog number: 25860 Epoch time: 13059.87728801 Element set: 880 Inclination: 097.9772 deg RA of node: 023.8707 deg Eccentricity: 0.0002066 Arg of perigee: 115.7081 deg Mean anomaly: 297.1004 deg Mean motion: 14.74487405 rev/day Decay rate: 4.02e-06 rev/day^2 Epoch rev: 73239 Checksum: 308
Satellite: NOAA-16 Catalog number: 26536 Epoch time: 13059.49982907 Element set: 116 Inclination: 099.0574 deg RA of node: 111.1187 deg Eccentricity: 0.0011455 Arg of perigee: 084.8262 deg Mean anomaly: 018.9369 deg Mean motion: 14.12842653 rev/day Decay rate: 1.49e-06 rev/day^2 Epoch rev: 64122 Checksum: 314
Satellite: NOAA-17 Catalog number: 27453 Epoch time: 13059.50201094 Element set: 39 Inclination: 098.3188 deg RA of node: 079.3215 deg Eccentricity: 0.0012864 Arg of perigee: 123.2185 deg Mean anomaly: 039.8025 deg Mean motion: 14.24542798 rev/day Decay rate: 1.03e-06 rev/day^2 Epoch rev: 55524 Checksum: 295
Satellite: NOAA-18 Catalog number: 28654 Epoch time: 13059.51702075 Element set: 523 Inclination: 099.0872 deg RA of node: 026.2477 deg Eccentricity: 0.0014918 Arg of perigee: 151.0277 deg Mean anomaly: 342.1377 deg Mean motion: 14.11776446 rev/day Decay rate: 1.60e-06 rev/day^2 Epoch rev: 40072 Checksum: 296
Satellite: NOAA-19 Catalog number: 33591 Epoch time: 13059.51231832 Element set: 710 Inclination: 098.8944 deg RA of node: 002.4902 deg Eccentricity: 0.0014397 Arg of perigee: 021.4419 deg Mean anomaly: 114.9974 deg Mean motion: 14.11464429 rev/day Decay rate: 7.8e-07 rev/day^2 Epoch rev: 20916 Checksum: 301
/EX SB KEPS @ AMSAT $ORB13059.M Orbital Elements 13059.MISC
HR AMSAT ORBITAL ELEMENTS FOR MANNED AND MISCELLANEOUS SATELLITES FROM WA5QGD FORT WORTH,TX February 28, 2013 BID: ORB13059.M TO ALL RADIO AMATEURS BT
Satellite: HUBBLE Catalog number: 20580 Epoch time: 13059.01398395 Element set: 185 Inclination: 028.4694 deg RA of node: 268.3463 deg Eccentricity: 0.0003113 Arg of perigee: 269.0590 deg Mean anomaly: 245.5148 deg Mean motion: 15.03313302 rev/day Decay rate: 1.420e-05 rev/day^2 Epoch rev: 5325 Checksum: 269
Satellite: ISS Catalog number: 25544 Epoch time: 13059.94731481 Element set: 314 Inclination: 051.6474 deg RA of node: 285.8987 deg Eccentricity: 0.0011236 Arg of perigee: 324.2454 deg Mean anomaly: 223.5245 deg Mean motion: 15.52469488 rev/day Decay rate: 7.220e-05 rev/day^2 Epoch rev: 81789 Checksum: 321
Satellite: CO-58 Catalog number: 28895 Epoch time: 13058.64894479 Element set: 415 Inclination: 097.8845 deg RA of node: 279.2429 deg Eccentricity: 0.0018820 Arg of perigee: 069.6529 deg Mean anomaly: 323.3348 deg Mean motion: 14.60974499 rev/day Decay rate: 3.88e-06 rev/day^2 Epoch rev: 39095 Checksum: 389
Satellite: FALCON Catalog number: 30776 Epoch time: 13059.66884709 Element set: 560 Inclination: 035.4305 deg RA of node: 147.7401 deg Eccentricity: 0.0001187 Arg of perigee: 119.8457 deg Mean anomaly: 035.6185 deg Mean motion: 15.09642205 rev/day Decay rate: 3.236e-05 rev/day^2 Epoch rev: 32900 Checksum: 294
Satellite: MAST Catalog number: 31126 Epoch time: 13059.18098563 Element set: 694 Inclination: 097.8787 deg RA of node: 061.3543 deg Eccentricity: 0.0093911 Arg of perigee: 033.5245 deg Mean anomaly: 039.2354 deg Mean motion: 14.54442662 rev/day Decay rate: 5.28e-06 rev/day^2 Epoch rev: 31147 Checksum: 307
Satellite: CAPE1 Catalog number: 31130 Epoch time: 13059.21367075 Element set: 706 Inclination: 097.8940 deg RA of node: 057.7060 deg Eccentricity: 0.0101755 Arg of perigee: 048.1417 deg Mean anomaly: 008.3235 deg Mean motion: 14.53313148 rev/day Decay rate: 7.03e-06 rev/day^2 Epoch rev: 31095 Checksum: 268
Satellite: COMPASS Catalog number: 32787 Epoch time: 13059.89640883 Element set: 556 Inclination: 097.7657 deg RA of node: 121.2351 deg Eccentricity: 0.0013365 Arg of perigee: 300.6478 deg Mean anomaly: 175.5075 deg Mean motion: 14.85020045 rev/day Decay rate: 1.454e-05 rev/day^2 Epoch rev: 26189 Checksum: 316
Satellite: AAUSAT2 Catalog number: 32788 Epoch time: 13059.18070641 Element set: 546 Inclination: 097.7667 deg RA of node: 121.0825 deg Eccentricity: 0.0012975 Arg of perigee: 302.8531 deg Mean anomaly: 090.7123 deg Mean motion: 14.85437123 rev/day Decay rate: 1.454e-05 rev/day^2 Epoch rev: 26182 Checksum: 298
Satellite: DO-64 Catalog number: 32789 Epoch time: 13059.86450816 Element set: 570 Inclination: 097.7806 deg RA of node: 124.9228 deg Eccentricity: 0.0012613 Arg of perigee: 293.5065 deg Mean anomaly: 178.4883 deg Mean motion: 14.87667100 rev/day Decay rate: 2.572e-05 rev/day^2 Epoch rev: 26201 Checksum: 330
Satellite: CO-66 Catalog number: 32791 Epoch time: 13059.18468880 Element set: 542 Inclination: 097.7662 deg RA of node: 120.0367 deg Eccentricity: 0.0013890 Arg of perigee: 304.1483 deg Mean anomaly: 121.1337 deg Mean motion: 14.84249932 rev/day Decay rate: 1.080e-05 rev/day^2 Epoch rev: 26170 Checksum: 304
Satellite: RS-30 Catalog number: 32953 Epoch time: 13059.72437483 Element set: 635 Inclination: 082.5037 deg RA of node: 135.6414 deg Eccentricity: 0.0020174 Arg of perigee: 109.2243 deg Mean anomaly: 251.1021 deg Mean motion: 12.43031551 rev/day Decay rate: 1.0e-07 rev/day^2 Epoch rev: 21643 Checksum: 244
Satellite: METEOR-M Catalog number: 35865 Epoch time: 13059.71678726 Element set: 247 Inclination: 098.6174 deg RA of node: 114.7333 deg Eccentricity: 0.0003173 Arg of perigee: 041.3895 deg Mean anomaly: 318.7518 deg Mean motion: 14.21880365 rev/day Decay rate: -2.1e-07 rev/day^2 Epoch rev: 17905 Checksum: 311
Satellite: RS-38 Catalog number: 35869 Epoch time: 13059.69793808 Element set: 221 Inclination: 098.6121 deg RA of node: 114.6588 deg Eccentricity: 0.0005282 Arg of perigee: 036.0942 deg Mean anomaly: 324.0590 deg Mean motion: 14.22114123 rev/day Decay rate: 4.0e-08 rev/day^2 Epoch rev: 17907 Checksum: 300
Satellite: JUGNU Catalog number: 37839 Epoch time: 13059.84747050 Element set: 341 Inclination: 019.9608 deg RA of node: 243.2197 deg Eccentricity: 0.0018876 Arg of perigee: 170.0129 deg Mean anomaly: 320.5916 deg Mean motion: 14.12126927 rev/day Decay rate: 3.86e-06 rev/day^2 Epoch rev: 7156 Checksum: 308
Satellite: SRMSAT Catalog number: 37841 Epoch time: 13058.90990266 Element set: 342 Inclination: 019.9713 deg RA of node: 258.7972 deg Eccentricity: 0.0011841 Arg of perigee: 116.5761 deg Mean anomaly: 024.7044 deg Mean motion: 14.10202243 rev/day Decay rate: 3.62e-06 rev/day^2 Epoch rev: 7133 Checksum: 276
Satellite: RAX-2 Catalog number: 37853 Epoch time: 13059.90145692 Element set: 438 Inclination: 101.7141 deg RA of node: 223.4657 deg Eccentricity: 0.0239033 Arg of perigee: 337.5573 deg Mean anomaly: 163.8450 deg Mean motion: 14.82403228 rev/day Decay rate: 2.234e-05 rev/day^2 Epoch rev: 7239 Checksum: 296
Satellite: AUBIESAT Catalog number: 37854 Epoch time: 13059.90649442 Element set: 437 Inclination: 101.7177 deg RA of node: 224.1270 deg Eccentricity: 0.0239286 Arg of perigee: 336.4284 deg Mean anomaly: 164.0281 deg Mean motion: 14.83008323 rev/day Decay rate: 2.549e-05 rev/day^2 Epoch rev: 7240 Checksum: 294
